Temperature
10 10 10 10 9 9 9 10 9 9 9 9 9 9 9 9 9 9 9 9 9 9 9 10 10 10 10 10 10 10 10 9 9 9 9 9 9 9 9 9 9 9 8
9 9 9 9 9 9 9 9 9 9 9 9 9 9 9 9 9 9 9 9 9 9 9 9 9 9 9 9 9 9 9 9 9 9 8 8 8 8 8 8 8 8 8
9 9 9 9 8 9 9 8 8 8 8 8 8 8 8 8 8 8 8 8 8 8 8 9 9 9 9 9 9 9 9 9 8 8 8 8 7 8 8 8 8 8 8
8 8 8 8 8 8 8 8 8 8 8 8 7 8 8 8 8 8 8 8 8 8 8 8 8 8 8 8 8 8 8 8 8 8 8 8 8 7 7 7 7 7 7
8 8 8 8 8 8 8 8 7 7 7 7 7 7 7 7 7 7 7 7 7 7 8 8 8 8 8 8 8 8 8 7 8 8 7 7 7 7 7 7 7 7 7
8 8 8 8 7 7 7 7 7 7 7 7 6 6 6 7 7 7 7 7 7 7 7 7 7 7 7 8 7 7 7 7 7 7 7 7 7 7 7 6 6 6 7
7 7 7 7 7 7 7 7 6 6 6 6 6 6 6 6 6 6 7 7 7 7 7 7 7 7 7 7 7 7 7 7 7 7 7 7 7 7 6 6 6 6 6
7 7 7 7 7 6 6 6 6 6 6 6 6 5 5 5 5 5 6 6 6 6 6 6 6 6 6 6 6 6 6 6 6 6 6 6 6 6 6 6 5 5 5
6 6 6 6 6 6 6 6 6 5 5 5 5 5 5 5 5 5 5 5 5 6 6 6 6 6 6 6 6 6 6 6 6 6 6 6 6 5 5 5 5 4 4
6 6 6 6 5 5 5 5 5 5 5 5 5 5 5 5 5 5 5 5 5 5 5 5 5 5 5 5 5 5 5 5 5 5 5 5 5 5 5 5 4 4 4
5 5 5 5 5 5 5 5 5 5 4 4 4 4 4 4 4 4 4 4 4 4 4 4 5 5 5 5 5 5 5 5 5 4 4 4 4 4 4 4 4 4 3
5 5 5 5 5 4 4 4 4 4 4 4 4 4 4 3 3 4 4 4 4 4 4 4 4 4 4 4 4 4 4 4 4 4 4 4 4 3 3 3 3 3 3
4 4 4 4 4 4 4 4 4 4 4 4 3 3 3 3 3 3 3 3 3 3 3 3 4 4 3 3 3 3 3 3 3 3 3 3 3 3 3 3 3 3 2
4 4 4 4 4 4 4 4 3 3 3 3 3 3 3 3 3 2 2 3 3 3 3 3 3 3 3 3 3 3 3 3 3 3 3 2 3 2 2 2 2 2 2
4 4 3 4 4 4 3 3 3 3 3 3 3 3 3 2 2 2 2 2 2 2 2 2 2 2 2 2 2 2 2 2 2 2 2 2 2 2 2 2 1 1 1
4 3 3 3 3 3 3 3 3 3 2 2 2 2 2 2 2 2 2 2 2 2 2 2 2 2 2 2 2 2 2 2 2 2 1 1 1 1 1 1 1 1 0
3 3 3 3 3 3 3 3 2 2 2 2 2 2 2 2 1 1 1 1 1 1 1 1 1 1 1 1 1 1 1 1 1 1 1 1 1 1 1 0 0 0 -0
3 3 3 3 3 3 2 2 2 2 2 2 2 1 1 1 1 1 1 1 1 1 1 1 1 1 1 0 1 0 0 0 0 0 0 0 0 -0 -0 -0 -0 -1 -1
3 3 3 3 3 2 2 2 2 2 1 1 1 1 1 1 1 1 0 0 0 0 0 0 0 0 0 -0 -0 -0 -0 -0 -0 -0 -0 -0 -1 -1 -1 -1 -1 -1 -1
3 3 3 3 2 2 2 2 2 1 1 1 1 1 1 0 0 0 0 -0 -0 -0 -0 -0 -0 -0 -1 -1 -1 -1 -1 -1 -1 -1 -1 -1 -1 -2 -2 -2 -2 -2 -2
3 3 2 2 2 2 2 1 1 1 1 1 1 0 0 0 -0 -0 -0 -0 -1 -1 -1 -1 -1 -1 -1 -1 -1 -1 -1 -2 -2 -2 -2 -2 -2 -2 -2 -2 -3 -3 -3
2 2 2 2 2 1 1 1 1 1 0 0 0 0 -0 -0 -1 -1 -1 -1 -1 -1 -1 -1 -1 -2 -2 -2 -2 -2 -2 -2 -2 -2 -2 -2 -3 -3 -3 -3 -3 -3 -4
1 1 1 1 1 1 1 0 0 0 0 -0 -0 -0 -1 -1 -1 -1 -1 -1 -2 -2 -2 -2 -2 -2 -2 -2 -3 -2 -3 -3 -3 -3 -3 -3 -3 -3 -4 -4 -4 -4 -4
1 1 1 1 1 0 0 0 -0 -0 -0 -0 -1 -1 -1 -1 -1 -2 -2 -2 -2 -2 -2 -2 -2 -3 -3 -3 -3 -3 -3 -3 -3 -3 -4 -4 -4 -4 -4 -4 -5 -5 -5
0 -0 0 0 -0 -0 -0 -0 -0 -1 -1 -1 -1 -1 -1 -1 -2 -2 -2 -2 -2 -3 -3 -3 -3 -3 -3 -3 -3 -4 -4 -4 -4 -4 -4 -4 -4 -5 -5 -5 -5 -5 -5
-0 -0 -0 -0 -0 -1 -1 -1 -1 -1 -1 -1 -1 -1 -2 -2 -2 -2 -3 -3 -3 -3 -3 -3 -3 -4 -4 -4 -4 -4 -4 -4 -4 -4 -4 -5 -5 -5 -5 -5 -5 -6 -6
Wind_Speed
5 3 3 3 3 3 3 4 3 2 2 1 1 1 1 1 1 1 1 0 1 1 1 1 2 3 3 3 3 3 3 2 1 2 2 1 1 1 1 1 2 2 1
3 3 3 3 4 4 4 4 4 3 3 2 2 1 1 1 1 0 1 1 1 0 1 1 2 2 3 3 3 3 3 2 1 2 3 1 0 1 1 0 1 0 1
6 4 4 5 4 5 5 4 4 3 3 2 2 1 1 1 0 1 1 1 1 0 1 1 2 2 3 3 3 4 5 4 2 1 3 3 3 1 1 1 1 1 0
4 4 4 5 5 5 4 4 3 3 3 3 3 3 2 1 2 1 1 1 1 1 0 1 2 2 2 2 3 3 3 5 4 2 0 1 3 3 1 1 2 1 1
4 4 5 5 4 4 3 3 3 3 3 3 4 4 2 1 1 0 0 1 1 1 0 1 2 2 2 2 2 2 3 3 4 3 2 1 1 2 2 2 2 1 2
3 2 2 2 2 2 2 3 3 3 2 3 3 3 3 2 1 0 1 1 1 0 0 1 1 1 2 2 2 2 3 3 3 3 3 3 3 3 3 3 3 2 2
2 2 2 2 3 3 3 3 4 3 2 2 2 3 3 3 3 2 2 1 1 1 1 1 1 1 2 2 2 2 2 3 4 3 3 2 2 2 3 3 3 2 2
2 2 3 3 3 3 3 4 4 3 2 2 2 1 2 2 1 2 2 2 2 2 1 1 2 2 2 2 2 2 2 2 3 3 3 2 2 2 2 3 3 2 2
2 2 2 2 2 3 3 4 4 3 3 3 2 2 2 1 1 1 1 1 1 1 1 1 1 2 2 2 2 1 1 2 2 3 3 2 2 2 2 2 3 4 3
1 1 2 2 2 2 2 2 3 3 3 3 2 2 2 1 1 0 0 1 1 0 1 1 1 1 1 2 2 1 1 1 1 2 2 2 2 1 1 2 2 3 3
2 2 2 2 1 1 2 2 3 3 2 3 3 2 2 1 1 1 0 0 0 1 1 1 1 1 1 1 2 1 1 1 1 1 2 2 2 2 1 1 2 2 2
2 2 2 1 1 1 1 2 2 3 3 3 2 2 2 1 1 1 0 1 1 1 1 1 1 1 1 1 1 2 2 2 1 1 2 2 1 2 2 2 2 2 2
2 1 1 2 2 2 2 2 2 2 2 3 3 2 2 2 2 1 1 1 1 1 1 1 1 1 1 1 1 1 2 2 2 2 2 2 2 2 2 2 2 2 1
3 3 3 3 3 3 3 3 2 2 2 3 3 3 3 3 2 2 1 2 2 2 1 1 1 1 1 1 1 1 1 2 1 1 1 2 3 3 3 3 3 2 1
4 4 4 4 4 3 3 3 2 2 3 3 3 3 3 2 2 2 1 1 1 1 1 1 0 1 1 1 2 2 2 2 1 1 1 1 2 2 3 2 2 2 2
6 5 5 4 4 4 4 3 3 3 3 3 3 3 3 2 2 2 2 2 1 1 1 1 0 1 1 1 2 1 2 2 2 1 1 1 2 2 2 3 3 3 3
6 6 6 6 5 5 5 5 4 3 3 3 3 3 3 3 2 2 2 2 2 1 0 0 1 1 1 2 2 2 1 1 1 1 1 1 1 2 1 3 3 4 5
6 6 5 5 4 4 4 3 3 3 4 3 3 3 4 3 3 2 2 2 1 1 1 1 1 1 2 2 1 1 1 1 1 1 2 2 2 2 3 2 2 2 3
5 5 5 4 3 4 4 3 3 3 3 4 4 4 4 4 3 3 3 2 1 1 1 1 1 1 2 3 2 2 1 1 1 2 2 2 3 4 3 1 1 2 2
3 3 3 2 3 3 3 4 4 4 4 5 4 4 4 5 4 4 3 2 2 2 2 1 2 2 3 3 3 3 1 1 2 2 2 3 4 4 4 1 2 3 3
2 2 2 2 3 3 4 4 4 5 5 3 3 3 4 4 4 3 3 2 2 2 2 2 2 2 3 4 4 4 1 2 2 2 2 3 5 5 5 4 3 4 2
2 1 1 2 2 3 4 4 5 4 3 3 3 3 3 3 3 4 3 3 3 2 2 2 2 2 2 3 4 5 5 4 2 3 2 3 5 5 5 4 4 4 2
3 2 2 2 3 3 4 5 5 3 3 3 3 3 3 3 3 4 4 3 3 3 3 2 2 2 2 3 5 6 6 6 3 3 4 5 5 4 3 4 5 3 1
3 2 2 3 3 3 3 5 4 3 4 4 4 3 3 3 3 3 3 4 4 3 3 3 3 2 2 2 2 2 3 4 3 2 3 4 3 2 2 3 2 1 2
3 3 3 4 5 3 3 3 3 4 4 4 4 3 3 4 3 3 4 4 5 5 5 4 4 3 4 5 5 4 3 2 3 1 0 1 1 1 1 2 2 2 2
3 3 4 4 4 4 4 3 3 4 5 4 3 3 3 3 3 3 2 5 5 6 7 6 5 5 6 6 6 6 6 5 3 2 2 2 2 3 3 3 3 3 3
Wind_Direction
238 209 191 178 170 170 167 165 159 164 151 154 165 175 224 271 299 335 360 37 184 178 164 191 173 160 173 178 171 157 139 116 127 124 104 41 60 108 107 93 94 86 95
240 216 196 185 186 186 185 176 175 174 172 177 188 187 201 227 251 313 12 7 13 111 151 166 199 169 166 165 173 162 157 139 137 145 144 153 287 292 241 164 162 170 82
225 218 203 202 195 194 194 187 183 178 171 155 122 88 61 39 22 327 321 346 3 27 131 145 178 169 169 180 187 184 168 171 166 159 162 160 201 220 288 234 208 226 197
220 216 208 205 204 204 192 179 174 170 168 160 157 158 170 209 243 250 263 325 30 36 101 130 135 145 155 171 194 188 183 171 178 170 148 149 147 159 207 272 246 224 220
212 213 210 206 201 187 176 169 162 163 162 164 171 174 180 193 217 275 279 337 7 22 45 114 125 142 142 144 155 162 172 180 180 174 164 158 107 126 160 220 254 270 246
220 216 199 170 160 152 150 150 154 162 160 157 166 172 176 164 150 198 208 249 277 276 280 136 142 152 142 148 171 173 169 174 166 167 169 174 163 175 175 202 220 239 256
200 194 186 180 175 167 162 160 158 162 162 157 167 179 183 175 179 198 209 211 241 261 258 202 172 164 154 149 150 171 178 179 171 178 184 188 195 177 176 182 207 228 260
204 198 204 199 193 185 175 168 169 170 169 166 181 186 180 180 197 207 204 210 223 230 231 199 171 159 149 146 143 156 185 175 180 185 183 181 204 187 181 182 184 213 253
223 212 205 200 198 195 194 183 172 172 177 176 171 176 177 171 199 232 221 218 232 209 172 173 155 144 138 143 137 152 172 173 182 188 186 183 194 185 177 171 181 186 220
242 224 207 204 208 205 192 174 169 177 178 170 174 180 183 182 173 167 226 252 255 113 141 156 149 139 138 137 141 145 142 136 171 186 178 180 187 187 179 178 187 188 198
236 224 213 209 194 176 166 173 177 169 169 174 174 171 180 176 148 155 247 248 149 116 144 150 146 135 123 123 142 157 163 162 168 176 174 183 180 187 201 195 199 199 195
230 215 204 190 176 184 194 194 190 187 191 185 173 176 170 159 156 172 206 124 114 106 125 123 118 131 138 136 155 176 174 174 188 193 169 176 178 182 199 196 208 215 218
242 240 218 211 208 209 216 211 199 198 185 167 163 165 163 163 178 174 152 135 125 106 92 106 118 123 149 150 159 179 190 193 207 200 193 197 186 207 220 214 220 229 247
232 233 236 234 230 224 218 207 204 190 175 164 166 178 182 179 184 171 157 155 148 140 137 136 142 143 151 165 173 177 183 191 208 208 201 206 206 215 218 222 219 214 222
244 239 238 240 236 233 224 208 203 187 176 173 184 197 185 167 159 154 153 141 138 146 151 138 115 146 175 194 198 197 194 191 191 204 223 233 248 247 232 233 219 204 215
245 245 242 236 233 230 229 223 214 199 175 184 201 193 169 165 167 166 160 147 136 117 115 132 206 232 233 234 241 213 176 177 189 213 246 277 289 289 294 286 270 240 229
243 239 236 234 232 227 217 216 217 192 180 194 198 188 178 177 178 171 160 159 154 135 153 215 213 246 262 261 247 250 176 168 191 216 244 277 284 300 276 279 288 280 273
243 238 232 236 237 228 217 210 196 184 188 195 196 192 184 187 180 171 180 183 171 175 206 234 240 253 283 285 279 285 146 158 214 233 231 242 261 260 243 238 247 258 269
240 235 231 229 226 223 209 193 193 189 191 204 205 199 188 187 184 192 199 194 183 203 219 211 214 234 273 281 282 293 170 198 243 250 243 244 249 269 268 246 240 268 279
248 235 228 218 220 226 193 187 201 197 211 216 211 200 189 190 196 201 202 197 194 210 211 230 227 230 253 270 273 274 208 227 252 254 257 267 271 275 279 233 220 249 259
271 240 218 221 227 214 183 197 209 220 223 210 200 200 197 198 197 198 197 189 196 199 215 243 253 243 247 266 272 270 239 229 242 247 251 263 280 284 285 283 237 259 267
284 252 237 256 252 210 189 207 226 228 210 194 198 203 202 203 196 185 195 192 186 197 220 237 261 252 252 258 265 268 267 260 243 248 246 258 275 281 282 287 284 290 308
263 251 226 255 268 234 201 215 233 212 193 194 205 206 204 205 197 189 193 193 191 202 220 227 245 263 258 256 264 268 270 267 260 249 256 264 272 279 283 287 287 291 248
260 250 228 243 260 247 226 224 223 202 188 200 209 208 199 203 199 198 197 197 201 209 218 225 238 255 267 263 263 259 267 269 272 273 266 270 278 285 286 289 294 288 249
264 245 235 242 254 252 242 236 219 192 191 201 207 208 207 204 202 204 208 209 214 210 212 221 224 230 250 258 259 255 244 232 233 226 230 252 272 264 272 271 264 256 261
262 257 250 249 254 251 249 246 220 194 190 199 208 209 207 206 201 203 226 232 226 233 233 234 234 239 251 267 270 267 264 259 245 226 221 235 235 239 248 256 262 255 254
Height
1479 1481 1482 1484 1485 1486 1487 1488 1489 1489 1490 1491 1492 1493 1493 1494 1495 1495 1496 1497 1498 1499 1500 1501 1502 1504 1505 1507 1509 1510 1512 1513 1515 1517 1518 1520 1521 1522 1523 1525 1526 1527 1528
1475 1477 1479 1480 1481 1482 1483 1484 1485 1486 1487 1488 1489 1490 1490 1491 1491 1492 1493 1494 1495 1496 1497 1498 1499 1501 1503 1504 1505 1507 1508 1510 1512 1513 1515 1516 1519 1518 1520 1522 1523 1524 1524
1472 1473 1475 1476 1477 1478 1480 1481 1482 1483 1484 1485 1486 1487 1487 1488 1488 1489 1489 1490 1491 1493 1494 1495 1497 1498 1499 1501 1502 1504 1505 1507 1509 1510 1512 1513 1513 1515 1517 1518 1519 1520 1521
1469 1470 1471 1472 1474 1475 1476 1477 1479 1480 1481 1482 1483 1483 1483 1484 1485 1485 1486 1487 1488 1489 1491 1492 1494 1495 1496 1498 1499 1501 1502 1503 1504 1507 1508 1510 1510 1512 1513 1515 1516 1517 1518
1466 1467 1468 1469 1471 1472 1473 1474 1476 1477 1478 1479 1480 1481 1481 1482 1482 1483 1484 1485 1485 1486 1488 1489 1491 1492 1493 1495 1496 1497 1498 1500 1501 1502 1504 1506 1507 1508 1509 1510 1512 1513 1514
1464 1465 1466 1467 1468 1469 1470 1471 1473 1474 1475 1476 1477 1478 1478 1479 1479 1480 1481 1482 1483 1483 1485 1486 1487 1489 1490 1491 1493 1494 1495 1496 1498 1499 1501 1502 1503 1504 1506 1506 1507 1509 1510
1462 1463 1464 1465 1466 1467 1468 1469 1470 1471 1472 1473 1474 1475 1476 1477 1477 1478 1478 1479 1480 1481 1482 1483 1484 1485 1487 1488 1489 1491 1492 1493 1495 1496 1497 1499 1500 1501 1502 1503 1504 1505 1506
1460 1461 1462 1463 1464 1465 1466 1467 1467 1468 1469 1470 1471 1473 1473 1474 1475 1476 1476 1477 1478 1479 1480 1481 1482 1483 1484 1485 1486 1487 1488 1490 1491 1492 1494 1495 1496 1498 1499 1500 1500 1500 1501
1458 1459 1460 1461 1462 1463 1464 1465 1465 1466 1467 1468 1469 1470 1471 1472 1473 1473 1474 1475 1476 1476 1477 1479 1479 1480 1481 1482 1483 1484 1485 1486 1487 1488 1490 1491 1492 1494 1495 1496 1497 1498 1497
1457 1458 1458 1459 1460 1461 1462 1463 1463 1464 1465 1466 1467 1468 1469 1469 1470 1471 1472 1472 1473 1474 1475 1476 1477 1478 1479 1479 1480 1481 1482 1483 1483 1484 1485 1487 1488 1489 1490 1491 1493 1493 1493
1455 1456 1457 1458 1459 1459 1460 1461 1461 1462 1463 1463 1464 1465 1466 1467 1468 1468 1469 1470 1471 1472 1473 1473 1474 1475 1475 1476 1477 1478 1478 1479 1480 1480 1481 1482 1484 1485 1486 1487 1488 1488 1489
1454 1455 1455 1456 1456 1457 1458 1458 1459 1459 1460 1461 1462 1463 1464 1465 1465 1466 1467 1468 1468 1469 1470 1470 1471 1472 1472 1473 1474 1474 1475 1475 1476 1476 1477 1478 1480 1480 1482 1483 1483 1484 1485
1453 1453 1453 1454 1454 1455 1455 1456 1456 1457 1458 1458 1459 1460 1462 1462 1463 1464 1465 1465 1466 1467 1467 1468 1468 1469 1469 1470 1470 1471 1471 1472 1472 1473 1474 1474 1476 1476 1477 1478 1479 1480 1480
1451 1451 1451 1452 1452 1452 1453 1453 1454 1454 1455 1456 1457 1458 1459 1460 1461 1462 1463 1463 1463 1464 1464 1465 1465 1466 1466 1467 1467 1468 1468 1469 1469 1469 1470 1471 1472 1473 1473 1474 1475 1475 1476
1448 1448 1448 1449 1450 1450 1450 1450 1451 1452 1453 1453 1455 1456 1457 1458 1458 1459 1460 1461 1461 1462 1462 1462 1462 1463 1463 1463 1464 1465 1465 1465 1466 1466 1467 1468 1468 1469 1469 1470 1470 1471 1471
1445 1445 1446 1446 1447 1447 1447 1448 1448 1449 1450 1451 1452 1453 1454 1455 1456 1456 1457 1458 1458 1459 1459 1459 1460 1460 1460 1461 1461 1461 1462 1462 1463 1463 1464 1464 1464 1465 1466 1466 1467 1467 1468
1442 1442 1443 1443 1444 1444 1445 1445 1446 1447 1447 1448 1449 1450 1451 1452 1452 1453 1454 1454 1455 1456 1456 1456 1457 1457 1457 1458 1458 1458 1459 1459 1460 1460 1461 1461 1461 1462 1462 1462 1462 1463 1463
1439 1439 1440 1440 1441 1442 1442 1443 1443 1444 1444 1445 1446 1447 1448 1448 1449 1450 1451 1451 1452 1452 1453 1453 1454 1454 1454 1455 1455 1455 1455 1456 1457 1457 1457 1458 1458 1458 1458 1458 1458 1459 1459
1437 1437 1437 1438 1438 1439 1439 1440 1440 1441 1441 1442 1442 1443 1444 1445 1446 1446 1447 1448 1448 1449 1449 1450 1451 1451 1451 1451 1452 1452 1452 1452 1453 1453 1454 1454 1454 1455 1455 1454 1454 1454 1455
1434 1434 1434 1435 1435 1436 1436 1436 1436 1437 1437 1438 1439 1440 1441 1441 1442 1443 1444 1445 1445 1446 1446 1447 1447 1447 1447 1448 1448 1449 1449 1449 1449 1450 1450 1450 1451 1451 1451 1451 1450 1450 1450
1431 1431 1431 1431 1432 1432 1432 1432 1433 1433 1434 1435 1436 1437 1437 1438 1438 1439 1440 1441 1442 1442 1442 1443 1443 1444 1444 1444 1445 1445 1445 1445 1446 1446 1446 1447 1447 1447 1447 1447 1446 1446 1446
1429 1429 1428 1428 1429 1429 1429 1429 1429 1430 1431 1432 1432 1433 1434 1434 1435 1435 1436 1437 1438 1438 1439 1439 1439 1440 1440 1441 1441 1442 1442 1442 1442 1442 1443 1443 1443 1443 1443 1443 1442 1442 1442
1426 1426 1425 1425 1425 1425 1425 1425 1426 1427 1427 1428 1428 1429 1430 1431 1431 1432 1432 1433 1434 1434 1435 1435 1435 1436 1437 1437 1438 1438 1438 1438 1438 1439 1439 1439 1439 1439 1439 1439 1438 1438 1438
1423 1422 1422 1421 1421 1422 1422 1422 1423 1423 1423 1424 1424 1425 1426 1426 1427 1428 1428 1429 1430 1430 1431 1431 1432 1432 1433 1433 1434 1434 1434 1434 1435 1435 1435 1435 1435 1435 1434 1435 1434 1434 1434
1419 1419 1418 1417 1417 1418 1418 1418 1419 1419 1419 1420 1420 1421 1422 1423 1423 1424 1424 1425 1426 1427 1428 1428 1428 1429 1429 1430 1431 1431 1430 1430 1431 1431 1431 1431 1430 1430 1430 1430 1430 1430 1430
1415 1415 1414 1414 1413 1414 1414 1414 1415 1415 1415 1416 1416 1417 1418 1419 1419 1420 1421 1422 1423 1423 1424 1425 1425 1425 1426 1426 1427 1427 1427 1427 1427 1427 1426 1426 1426 1426 1426 1426 1426 1426 1425